{"data":{"norad_id":53598,"intl_designator":"2022-104L","name":"STARLINK-4676","alt_names":[],"object_type":"PAYLOAD","status":"ACTIVE","operator":null,"country":"US","launch_date":"2022-08-28","launch_site_code":"AFETR","launch_vehicle":null,"mission":null,"orbit_class":"UNKNOWN","rcs_meters":null,"size_class":null,"mass_kg":null,"dimensions":null,"purposes":["comms"],"wikipedia_slug":null,"has_3d_model":false,"image_url":null,"decayed_at":null,"tle_current":{"epoch":"2026-05-25T00:46:01.185888Z","epoch_age_seconds":62431,"freshness":"FRESH","line1":"1 53598U 22104L   26145.03195817 -.00000265  00000+0  14636-5 0  9999","line2":"2 53598  53.2141 261.1445 0001310  90.3170 269.7972 15.08831266207142","mean_motion":15.08831266,"eccentricity":0.000131,"inclination_deg":53.2141,"raan_deg":261.1445,"arg_perigee_deg":90.317,"mean_anomaly_deg":269.7972,"bstar":1.4636e-6,"rev_number":20714,"period_min":95.438107126288,"perigee_km":538.8638396086,"apogee_km":540.67633126499,"semimajor_km":6917.9070854368,"source":"CELESTRAK","updated_at":"2026-05-25T13:38:17.475134Z"}}}